This is the latest recevied weather packets stored in our database for station/object DM4XI-13. If no packets are shown the sender has not sent any weather packets the latest 10 day(s).
| Time | Temp. | Humidity | Pressure | Rain* | Wind** | Luminosity | Snow |
|---|---|---|---|---|---|---|---|
| 1778034369 | 10° C | 95% | 1005.5 hPa | 0 mm | 0.45 m/s, 185° | 0 W/m² | - |
| 1778034308 | 10° C | 94% | 1005.4 hPa | 0 mm | 0.89 m/s, 185° | 0 W/m² | - |
| 1778034247 | 10.56° C | 94% | 1005.5 hPa | 0 mm | 0.45 m/s, 185° | 0 W/m² | - |
| 1778034185 | 10.56° C | 94% | 1005.6 hPa | 0 mm | 0.89 m/s, 182° | 0 W/m² | - |
| 1778034124 | 10.56° C | 95% | 1005.5 hPa | 0 mm | 0.45 m/s, 181° | 0 W/m² | - |
| 1778034064 | 10.56° C | 95% | 1005.6 hPa | 0 mm | 0.89 m/s, 187° | 0 W/m² | - |
| 1778034003 | 10.56° C | 95% | 1005.6 hPa | 0 mm | 0.89 m/s, 188° | 0 W/m² | - |
| 1778033942 | 10.56° C | 95% | 1005.4 hPa | 0 mm | 0.89 m/s, 186° | 0 W/m² | - |
| 1778033881 | 10.56° C | 95% | 1005.2 hPa | 0 mm | 0.89 m/s, 186° | 0 W/m² | - |
| 1778033820 | 10.56° C | 94% | 1005.6 hPa | 0 mm | 0.89 m/s, 176° | 0 W/m² | - |
| 1778033759 | 10.56° C | 94% | 1005.5 hPa | 0 mm | 0.45 m/s, 186° | 0 W/m² | - |
| 1778033697 | 10.56° C | 94% | 1005.3 hPa | 0 mm | 0.89 m/s, 179° | 0 W/m² | - |
| 1778033636 | 10.56° C | 94% | 1005.3 hPa | 0 mm | 0.89 m/s, 179° | 0 W/m² | - |
| 1778033576 | 10.56° C | 94% | 1005.4 hPa | 0 mm | 0.45 m/s, 182° | 0 W/m² | - |
| 1778033515 | 10.56° C | 95% | 1005.5 hPa | 0 mm | 0.89 m/s, 182° | 0 W/m² | - |
| 1778033454 | 10.56° C | 94% | 1005.5 hPa | 0 mm | 0.89 m/s, 182° | 0 W/m² | - |
| 1778033392 | 10.56° C | 94% | 1005.4 hPa | 0 mm | 0.45 m/s, 184° | 0 W/m² | - |
| 1778033331 | 10.56° C | 95% | 1005.5 hPa | 0 mm | 0.45 m/s, 187° | 0 W/m² | - |
| 1778033271 | 10.56° C | 95% | 1005.6 hPa | 0 mm | 0.45 m/s, 186° | 0 W/m² | - |
| 1778033210 | 10.56° C | 95% | 1005.5 hPa | 0 mm | 0.45 m/s, 186° | 0 W/m² | - |
| 1778033148 | 10.56° C | 94% | 1005.5 hPa | 0 mm | 0 m/s | 0 W/m² | - |
| 1778033087 | 10.56° C | 94% | 1005.4 hPa | 0 mm | 0.45 m/s, 186° | 0 W/m² | - |
| 1778033027 | 10.56° C | 94% | 1005.4 hPa | 0 mm | 0.45 m/s, 186° | 0 W/m² | - |
| 1778032966 | 10.56° C | 95% | 1005.5 hPa | 0 mm | 0.45 m/s, 186° | 0 W/m² | - |
| 1778032905 | 10.56° C | 95% | 1005.4 hPa | 0 mm | 0.45 m/s, 184° | 0 W/m² | - |
* Rain latest hour (hover to see other rain measurements)
** Current wind speed in m/s (hover to see current wind gust speed)